This demonstration page uses our WeatherBlox Daily Observations layout. Learn more.

38.88101, -77.10428

Hourly Observations for June 9, 2016

Temp ( °F °C ) Dew Point ( °F °C ) Humidity (%) Winds ( mph kmh ) Pressure ( in mb ) Visibility ( mi km ) Precip ( " mm )
12:52 am 00:52 Clear 62 16.7 42 5.6 48 48 NW 8 13 29.94 1014 10 16.0934 0 0
1:52 am 01:52 Clear 61 16.1 43 6.1 52 52 W 5 7 29.95 1014 10 16.0934 0 0
2:52 am 02:52 Clear 58 14.4 45 7.2 62 62 SSW 6 9 29.96 1015 10 16.0934 0 0
3:52 am 03:52 Clear 57 13.9 45 7.2 64 64 WSW 5 7 29.96 1015 10 16.0934 0 0
4:52 am 04:52 Clear 56 13.3 45 7.2 67 67 SSW 3 6 29.96 1015 10 16.0934 0 0
5:52 am 05:52 Mostly Sunny 53 11.7 47 8.3 80 80 SW 3 6 29.97 1015 10 16.0934 0 0
6:52 am 06:52 Mostly Sunny 59 15 47 8.3 64 64 WSW 5 7 29.98 1015 10 16.0934 0 0
7:52 am 07:52 Mostly Sunny 64 17.8 47 8.3 54 54 WSW 10 17 29.99 1016 10 16.0934 0 0
8:52 am 08:52 Partly Cloudy 69 20.6 47 8.3 45 45 W 13 20 29.99 1016 10 16.0934 0 0
9:52 am 09:52 Partly Cloudy 71 21.7 48 8.9 44 44 WSW 8 13 29.98 1015 10 16.0934 0 0
10:52 am 10:52 Partly Cloudy 73 22.8 49 9.4 43 43 NW 12 19 29.97 1015 10 16.0934 0 0
11:52 am 11:52 Partly Cloudy 75 23.9 48 8.9 39 39 NNW 16 26 29.96 1015 10 16.0934 0 0
12:52 pm 12:52 Partly Cloudy 77 25 47 8.3 35 35 NW 7 11 29.94 1014 10 16.0934 0 0
1:52 pm 13:52 Mostly Sunny 79 26.1 47 8.3 32 32 W 13 20 29.93 1013 10 16.0934 0 0
2:52 pm 14:52 Mostly Sunny 80 26.7 47 8.3 31 31 NW 12 19 29.91 1013 10 16.0934 0 0
3:52 pm 15:52 Mostly Sunny 81 27.2 45 7.2 28 28 WNW 14 22 29.9 1013 10 16.0934 0 0
4:52 pm 16:52 Mostly Sunny 82 27.8 45 7.2 27 27 NW 10 17 29.89 1012 10 16.0934 0 0
5:52 pm 17:52 Mostly Sunny 81 27.2 45 7.2 28 28 NW 12 19 29.89 1012 10 16.0934 0 0
6:52 pm 18:52 Mostly Cloudy 79 26.1 45 7.2 30 30 NW 13 20 29.88 1012 10 16.0934 0 0
7:52 pm 19:52 Mostly Cloudy 77 25 43 6.1 30 30 NNW 10 17 29.9 1013 10 16.0934 0 0
8:52 pm 20:52 Mostly Cloudy 76 24.4 41 5 29 29 NW 12 19 29.91 1013 10 16.0934 0 0
9:52 pm 21:52 Mostly Clear 74 23.3 40 4.4 29 29 NW 9 15 29.94 1014 10 16.0934 0 0
10:52 pm 22:52 Mostly Clear 74 23.3 39 3.9 28 28 NW 10 17 29.97 1015 10 16.0934 0 0
11:52 pm 23:52 Mostly Clear 69 20.6 41 5 36 36 NNW 12 19 29.98 1015 10 16.0934 0 0

Powered by AerisWeather